Location: Mulkeytown
(37.9709°N, 89.1115°W)
Time: 12:37:45
(UTC+00:00)

Daily predictions for brighter satellites

Satellite Brightness Start Highest point End
(mag) Time Altitude Azimuth Time Altitude Azimuth Time Altitude Azimuth
Cosmos 2369 Rocket 3.2 12:02:34 10° WSW 12:06:53 23° NW 12:11:15 10° N
Cosmos 1408 Rocket 3.6 12:03:40 10° SSW 12:07:52 53° W 12:12:06 10° N
FengYun 1-2 T 4.3 12:08:15 10° NNE 12:13:46 87° ESE 12:19:15 10° SSW
USA 215 3.3 12:08:17 10° SE 12:14:49 80° SW 12:21:22 10° NW
BREEZE-M DEB 3.3 12:12:04 10° WSW 12:15:03 69° NNW 12:23:45 10° NE
Cosmos 1743 Rocket 3.6 12:11:00 10° S 12:15:24 89° W 12:19:48 10° N
Cosmos 2279 Rocket 4.5 12:10:15 10° NNW 12:15:54 38° W 12:21:31 10° SSW
H-2A R/B 3.5 12:14:17 10° NNE 12:18:54 40° E 12:23:31 10° SSE
Cosmos 1602 4.4 12:16:07 10° S 12:19:51 59° E 12:23:36 10° NNE
Nadezhda 4 Rocket 4.0 12:15:47 10° SSW 12:21:48 60° W 12:27:58 10° N
AQUARIUS 4.3 12:19:58 10° NNE 12:24:29 86° ESE 12:28:59 10° SSW
DMSP B5D2-2 4.3 12:21:02 10° S 12:26:05 51° W 12:31:10 10° NNW
Cosmos 1515 Rocket 3.9 12:24:06 10° NNW 12:28:15 45° W 12:32:22 10° SSW
USA 32 4.1 12:26:11 10° N 12:31:27 88° E 12:36:41 10° S
SL-8 R/B 4.1 12:26:59 10° NW 12:31:43 58° NNE 12:36:25 10° ESE
Meteor 1-20 Rocket 4.3 12:26:11 10° S 12:31:43 88° W 12:37:24 10° N
BREEZE-M DEB (TANK) 4.4 12:21:00 10° NW 12:33:46 37° WSW 12:38:08 10° S
Cosmos 2221 3.6 22:59:53 10° SSW 23:04:01 48° W 23:08:10 10° N
CZ-4B R/B 4.3 23:01:07 10° ESE 23:05:02 21° ENE 23:08:56 10° NNE
Cosmos 1842 Rocket 4.4 23:00:50 10° SSW 23:05:12 57° W 23:09:37 10° N
Sich 1 4.0 23:02:17 10° NNE 23:05:50 25° ENE 23:09:24 10° SE
Cosmos 1805 Rocket 4.2 23:02:02 10° NNE 23:05:55 32° ENE 23:09:48 10° SE
NOSS 3-1 (A) 4.3 22:59:21 10° NNW 23:06:58 58° NE 23:15:41 10° SE
NOSS 3-1 (C) 4.3 22:59:46 10° NNW 23:07:36 87° ENE 23:16:36 10° SSE
GPS 2-04 Rocket1 3.1 23:04:04 10° WSW 23:08:08 63° S 23:12:12 10° E
Cosmos 44 3.3 23:06:11 10° NNW 23:10:52 79° WSW 23:15:16 10° SSE
Cosmos 468 Rocket 4.2 23:06:05 10° SSW 23:11:13 78° WNW 23:16:26 10° NNE
CZ-2C R/B 3.6 23:07:41 10° NE 23:11:55 25° E 23:16:06 10° SSE
CZ-2C R/B 3.2 23:07:35 10° S 23:12:34 75° WSW 23:17:23 10° NNW
Meteor 1-20 Rocket 4.3 23:07:45 10° N 23:13:34 63° E 23:19:20 10° SSE
Cosmos 1898 Rocket 3.6 23:13:00 10° N 23:18:09 55° ENE 23:23:14 10° SSE
Nadezhda 4 Rocket 4.2 23:12:48 10° N 23:19:10 80° W 23:25:28 10° S
Cosmos 2084 3.6 23:14:54 10° NNW 23:19:10 53° NE 23:23:35 10° SE
Cosmos 1666 4.3 23:18:03 10° NE 23:20:06 14° ENE 23:22:10 10° ESE
AQUARIUS 4.2 23:16:51 10° SSE 23:21:15 61° ENE 23:25:40 10° N
CZ-4C R/B 3.8 23:21:38 10° NNW 23:27:49 29° NE 23:34:47 10° E
Cosmos 1939 Rocket 3.1 23:25:36 10° S 23:29:43 77° WSW 23:33:49 10° NNW
Cosmos 1812 3.3 23:29:12 10° SSE 23:32:43 35° E 23:36:16 10° NNE
Cosmos 1092 Rocket 4.0 23:27:55 10° N 23:34:18 78° E 23:40:36 10° S
H-2A R/B 2.2 23:29:40 10° SSE 23:34:40 49° ENE 23:39:34 10° N
Cosmos 1428 Rocket 4.4 23:32:18 10° N 23:38:25 73° E 23:44:34 10° SSE
USA 276 2.0 23:35:51 10° NW 23:38:57 64° NE 23:41:29 14° ESE
COSMO-SKYMED 1 3.0 23:35:09 10° NNE 23:39:17 42° E 23:43:23 10° S
BREEZE-M DEB (TANK) 4.2 23:38:34 10° NW 23:46:06 63° SW 23:49:00 10° SE
Cosmos 921 Rocket 4.2 23:43:47 10° SSE 23:46:57 21° E 23:47:24 21° E
Cosmos 2142 Rocket 4.5 23:42:33 10° S 23:48:34 62° E 23:54:40 10° NNE
Cosmos 1633 Rocket 3.7 23:45:43 10° NNE 23:49:41 33° ENE 23:53:39 10° SE
Cosmos 841 Rocket 3.7 23:46:10 10° SSW 23:51:19 74° WNW 23:56:29 10° NNE
Cosmos 1697 Rocket 2.7 23:47:03 10° NNW 23:52:41 85° WSW 23:58:18 10° SSE
Cosmos 1602 4.2 23:49:19 10° NNW 23:53:09 64° W 23:56:57 10° S
Cosmos 1782 3.4 23:51:53 10° SSW 23:55:49 58° W 23:59:45 10° N
